Weather History for KBKB - February, 2013

Change the Weather History Date:

Monday, February 18, 2013

  Actual Average (KPOE) Record (KPOE)
Temperature  
Mean Temperature 60 °F -  
Max Temperature 68 °F 63 °F 80 °F (2000)
Min Temperature 51 °F 43 °F 29 °F (2015)
Degree Days  
Heating Degree Days 6    
Growing Degree Days 10 (Base 50)    
Moisture  
Dew Point 58 °F    
Average Humidity 87    
Maximum Humidity 100    
Minimum Humidity 63    
Precipitation  
Precipitation 1.36 in - - ()
Sea Level Pressure  
Sea Level Pressure 29.96 in    
Wind  
Wind Speed 5 mph (SSW)    
Max Wind Speed 10 mph    
Max Gust Speed 16 mph    
Visibility 6 miles    
Events Rain    
Averages and records for this station are not official NWS values.
T = Trace of Precipitation, MM = Missing Value Source: NWS Daily Summary

Daily Weather History Graph

Daily Weather History Graph

Search for Another Location

Airport or City:

Trip Planner

Search our weather history database for the weather conditions in past years. The results will help you decide how hot, cold, wet, or windy it might be!

Date:

Astronomy

Feb. 18, 2013 Rise Set
Actual Time 6:49 AM CST 6:01 PM CST
Civil Twilight 6:24 AM CST 6:26 PM CST
Nautical Twilight 5:56 AM CST 6:54 PM CST
Astronomical Twilight 5:28 AM CST 7:22 PM CST
Moon 11:59 AM CST (2/18) 1:19 AM CST (2/18)
Length of Visible Light 12h 01m
Length of Day
11h 12m
First Quarter, 58% of the Moon is Illuminated
Feb 18
First Quarter
Feb 25
Full
Mar 4
Last Quarter
Mar 11
New
Mar 19
First Quarter

Hourly Weather History & Observations

Time (CST) Temp. Dew Point Humidity Pressure Visibility Wind Dir Wind Speed Gust Speed Precip Events Conditions
12:54 AM 51.1 °F 44.1 °F 77% 30.18 in 10.0 mi Variable 3.5 mph - N/A   Clear
1:54 AM 51.1 °F 44.1 °F 77% 30.17 in 10.0 mi Variable 4.6 mph - N/A   Clear
2:54 AM 51.1 °F 44.1 °F 77% 30.14 in 10.0 mi SSE 4.6 mph - N/A   Clear
3:54 AM 52.0 °F 45.0 °F 77% 30.13 in 10.0 mi Variable 3.5 mph - N/A   Mostly Cloudy
4:54 AM 52.0 °F 46.0 °F 80% 30.13 in 10.0 mi SE 5.8 mph - N/A   Overcast
5:54 AM 54.0 °F 46.9 °F 77% 30.12 in 10.0 mi Variable 3.5 mph - N/A   Overcast
6:54 AM 55.0 °F 48.0 °F 77% 30.11 in 10.0 mi Variable 3.5 mph - N/A   Overcast
7:54 AM 57.9 °F 48.9 °F 72% 30.12 in 10.0 mi SSE 4.6 mph - N/A   Overcast
8:54 AM 59.0 °F 50.0 °F 72% 30.11 in 10.0 mi Variable 4.6 mph - N/A   Overcast
9:54 AM 62.1 °F 52.0 °F 70% 30.11 in 10.0 mi Variable 3.5 mph - N/A   Overcast
10:54 AM 66.0 °F 53.1 °F 63% 30.09 in 10.0 mi Variable 5.8 mph - N/A   Overcast
11:54 AM 68.0 °F 55.0 °F 63% 30.07 in 10.0 mi Variable 5.8 mph - N/A   Overcast
12:54 PM 68.0 °F 55.9 °F 65% 30.04 in 10.0 mi South 10.4 mph 16.1 mph N/A   Overcast
1:54 PM 66.9 °F 55.9 °F 68% 30.01 in 10.0 mi Variable 4.6 mph - 0.00 in Rain Light Rain
2:54 PM 64.9 °F 59.0 °F 81% 29.97 in 10.0 mi Variable 5.8 mph - 0.01 in Rain Light Rain
3:46 PM 62.6 °F 60.8 °F 94% 29.88 in 10.0 mi Variable 3.5 mph - 0.05 in Rain Light Rain
3:54 PM 63.0 °F 60.1 °F 90% 29.96 in 7.0 mi Variable 4.6 mph - 0.06 in Rain Light Rain
4:14 PM 62.6 °F 60.8 °F 94% 29.88 in 2.5 mi Variable 5.8 mph - 0.06 in Rain Rain
4:17 PM 62.6 °F 60.8 °F 94% 29.88 in 1.8 mi Variable 4.6 mph - 0.07 in Rain Heavy Rain
4:26 PM 62.6 °F 60.8 °F 94% 29.87 in 1.8 mi Variable 3.5 mph - 0.11 in Rain Rain
4:29 PM 62.6 °F 60.8 °F 94% 29.88 in 2.0 mi Variable 3.5 mph - 0.12 in Rain Rain
4:35 PM 62.6 °F 60.8 °F 94% 29.88 in 3.0 mi Variable 3.5 mph - 0.13 in Rain Rain
4:54 PM 63.0 °F 61.0 °F 93% 29.97 in 4.0 mi Variable 5.8 mph - 0.16 in Rain Light Rain
5:06 PM 62.6 °F 60.8 °F 94% 29.88 in 1.8 mi Variable 5.8 mph - 0.05 in Rain Heavy Rain
5:12 PM 62.6 °F 60.8 °F 94% 29.87 in 2.0 mi South 8.1 mph - 0.07 in Rain Rain
5:23 PM 64.4 °F 60.8 °F 88% 29.88 in 6.0 mi Variable 4.6 mph - 0.08 in Rain Light Rain
5:34 PM 62.6 °F 60.8 °F 94% 29.87 in 2.0 mi Variable 3.5 mph - 0.13 in Rain Heavy Rain
5:42 PM 62.6 °F 60.8 °F 94% 29.87 in 2.5 mi Variable 3.5 mph - 0.15 in Rain Rain
5:54 PM 63.0 °F 61.0 °F 93% 29.95 in 2.0 mi Variable 6.9 mph - 0.24 in Rain Heavy Rain
6:02 PM 62.6 °F 60.8 °F 94% 29.87 in 4.0 mi Variable 5.8 mph - 0.02 in Rain Rain
6:23 PM 64.4 °F 60.8 °F 88% 29.87 in 3.0 mi Variable 4.6 mph - 0.12 in Rain Heavy Rain
6:33 PM 64.4 °F 60.8 °F 88% 29.86 in 2.0 mi Variable 4.6 mph - 0.19 in Rain Rain
6:36 PM 64.4 °F 60.8 °F 88% 29.86 in 3.0 mi Variable 6.9 mph - 0.20 in Rain Rain
6:38 PM 64.4 °F 60.8 °F 88% 29.87 in 2.5 mi Variable 6.9 mph - 0.22 in Rain Rain
6:49 PM 64.4 °F 60.8 °F 88% 29.87 in 1.5 mi South 9.2 mph - 0.34 in Rain Heavy Rain
6:54 PM 64.0 °F 62.1 °F 93% 29.97 in 3.0 mi Variable 5.8 mph - 0.34 in Rain Light Rain
7:28 PM 64.4 °F 62.6 °F 94% 29.89 in 10.0 mi Calm Calm - 0.00 in   Overcast
7:40 PM 64.4 °F 62.6 °F 94% 29.89 in 3.0 mi Calm Calm - 0.03 in Rain Rain
7:54 PM 64.0 °F 62.1 °F 93% 29.96 in 4.0 mi Calm Calm - 0.07 in Rain Rain
7:58 PM 64.4 °F 62.6 °F 94% 29.88 in 1.8 mi Variable 3.5 mph - 0.08 in Rain Light Rain
8:04 PM 62.6 °F 62.6 °F 100% 29.89 in 1.0 mi West 4.6 mph - 0.15 in Rain Heavy Rain
8:12 PM 62.6 °F 60.8 °F 94% 29.88 in 0.8 mi Variable 5.8 mph - 0.38 in Rain Heavy Rain
8:18 PM 64.4 °F 62.6 °F 94% 29.89 in 1.0 mi SSW 9.2 mph - 0.42 in Rain Heavy Rain
8:24 PM 64.4 °F 60.8 °F 88% 29.89 in 3.0 mi Variable 3.5 mph - 0.42 in Rain Light Rain
8:38 PM 64.4 °F 60.8 °F 88% 29.90 in 10.0 mi Variable 4.6 mph - 0.42 in   Mostly Cloudy
8:54 PM 64.0 °F 62.1 °F 93% 29.98 in 10.0 mi Variable 5.8 mph - 0.42 in   Mostly Cloudy
9:01 PM 64.4 °F 62.6 °F 94% 29.90 in 10.0 mi Variable 4.6 mph - N/A   Overcast
9:26 PM 64.4 °F 62.6 °F 94% 29.90 in 10.0 mi Variable 3.5 mph - N/A   Overcast
9:54 PM 64.9 °F 62.1 °F 90% 29.98 in 10.0 mi Variable 6.9 mph - N/A   Overcast
10:09 PM 64.4 °F 62.6 °F 94% 29.90 in 10.0 mi SW 8.1 mph - N/A   Overcast
10:43 PM 62.6 °F 59.0 °F 88% 29.94 in 7.0 mi WNW 8.1 mph - 0.02 in Rain Rain
10:54 PM 62.1 °F 59.0 °F 90% 30.03 in 6.0 mi Variable 6.9 mph - 0.04 in Rain Light Rain
11:54 PM 60.1 °F 57.0 °F 90% 30.06 in 10.0 mi Variable 5.8 mph - 0.02 in   Overcast